Hourly Data Report for July 02, 2021

CAMPBELL RIVER A
BRITISH COLUMBIA
Current Station Operator: NAVCAN

49°57'07.000" N
125°16'23.000" W
108.80 m
1021270
YBL

Download Data

Hourly Data (July 2021)
Hourly Data Report for July 2, 2021
TIME
LST
Temp Definition
°C
Dew Point Definition
°C
Rel Hum Definition
%
Precip. Amount Definition
mm

Wind Dir Definition
10's deg

Wind Spd Definition
km/h
Visibility Definition
km
Stn Press Definition
kPa
Hmdx Definition


Wind Chill Definition


Weather Definition


00:00 14.2 10.1 76 LegendMM 28 15 LegendMM 100.33     LegendNANA
01:00 13.4 9.9 79 LegendMM 28 11 LegendMM 100.33     LegendNANA
02:00 13.0 9.5 79 LegendMM 29 12 LegendMM 100.35     LegendNANA
03:00 12.9 9.0 77 LegendMM 29 16 LegendMM 100.38     LegendNANA
04:00 12.0 8.9 81 LegendMM 29 9 LegendMM 100.41     LegendNANA
05:00 12.7 9.0 78 LegendMM 29 11 LegendMM 100.44     LegendNANA
06:00 14.4 9.3 71 LegendMM 30 17 LegendMM 100.45     LegendNANA
07:00 16.2 9.7 65 LegendMM 30 19 LegendMM 100.46     LegendNANA
08:00 18.2 9.6 57 LegendMM 32 24 LegendMM 100.46     LegendNANA
09:00 19.6 9.7 52 LegendMM 31 21 LegendMM 100.44     LegendNANA
10:00 21.2 9.8 48 LegendMM 30 20 LegendMM 100.45     LegendNANA
11:00 22.0 11.0 49 LegendMM 33 16 LegendMM 100.44     LegendNANA
12:00 22.4 11.5 49 LegendMM 31 6 LegendMM 100.44     LegendNANA
13:00 24.0 11.4 45 LegendMM 7 2 LegendMM 100.43 26   LegendNANA
14:00 25.6 11.0 39 LegendMM 34 9 LegendMM 100.41 27   LegendNANA
15:00 25.5 10.4 38 LegendMM 34 11 LegendMM 100.36 27   LegendNANA
16:00 23.8 10.0 41 LegendMM 36 16 LegendMM 100.32 25   LegendNANA
17:00 24.4 10.6 41 LegendMM 34 12 LegendMM 100.30 26   LegendNANA
18:00 22.4 11.1 48 LegendMM 34 13 LegendMM 100.28     LegendNANA
19:00 19.9 11.1 56 LegendMM 30 13 LegendMM 100.28     LegendNANA
20:00 18.3 11.1 62 LegendMM 28 8 LegendMM 100.29     LegendNANA
21:00 16.6 10.7 68 LegendMM 28 9 LegendMM 100.34     LegendNANA
22:00 15.2 10.2 72 LegendMM 28 10 LegendMM 100.33     LegendNANA
23:00 14.7 9.9 73 LegendMM 29 12 LegendMM 100.32     LegendNANA

Notes on Data Quality.

Legend

  • E = Estimated
  • M = Missing
  • NA = Not Available*
  • [empty] = Indicates an unobserved value
Date modified: